When you browse on this site, cookies collect data to enhance your experience and personalize the content and advertising you see.
Visit our Privacy Policy to learn more. By continuing to use the site, you agree to this use of cookies and data.
  • In Romania
  • List of Countries
  • For 7 days
  • Water Temperature
  • Satellite Maps
  • Weather Map
  • Weather Widgets
  • user-avatar
    Login

    Hourly Weather Kipungo

    Today, 16 January, Wednesday

    Time Temperature Precipitation Wind Pressure Humidity
    00:00 +19°C° 0.1 mm 2 mps 653 mmHg 78%
    01:00 +20°C° 0.1 mm 1 mps 653 mmHg 78%
    02:00 +20°C° 0.2 mm 1 mps 653 mmHg 79%
    03:00 +19°C° 0.2 mm 1 mps 653 mmHg 80%
    04:00 +19°C° 0.2 mm 1 mps 653 mmHg 81%
    05:00 +18°C° 1.9 mm 2 mps 653 mmHg 84%
    06:00 +17°C° 1.9 mm 2 mps 653 mmHg 87%
    07:00 +17°C° 1.9 mm 2 mps 653 mmHg 89%
    08:00 +17°C° 1.8 mm 2 mps 654 mmHg 87%
    09:00 +17°C° 1.8 mm 2 mps 654 mmHg 85%
    10:00 +18°C° 1.8 mm 3 mps 654 mmHg 83%
    11:00 +19°C° 0.1 mm 3 mps 654 mmHg 75%
    12:00 +21°C° 0.1 mm 3 mps 654 mmHg 67%
    13:00 +24°C° 0.1 mm 3 mps 654 mmHg 59%
    14:00 +24°C° 0 mm 2 mps 654 mmHg 58%
    15:00 +25°C° 0 mm 2 mps 653 mmHg 57%
    16:00 +25°C° 0 mm 2 mps 653 mmHg 56%
    17:00 +23°C° 0 mm 2 mps 653 mmHg 61%
    18:00 +21°C° 0 mm 2 mps 652 mmHg 67%
    19:00 +19°C° 0 mm 2 mps 652 mmHg 72%
    20:00 +19°C° 0 mm 2 mps 652 mmHg 74%
    21:00 +19°C° 0 mm 1 mps 653 mmHg 75%
    22:00 +19°C° 0 mm 1 mps 653 mmHg 77%
    23:00 +18°C° 0 mm 1 mps 653 mmHg 78%

    Tomorrow, 17 January, Thursday

    Time Temperature Precipitation Wind Pressure Humidity
    00:00 +17°C° 0 mm 2 mps 653 mmHg 78%
    01:00 +17°C° 0 mm 2 mps 652 mmHg 79%
    02:00 +18°C° 0 mm 1 mps 652 mmHg 77%
    03:00 +18°C° 0 mm 1 mps 652 mmHg 76%
    04:00 +18°C° 0 mm 1 mps 652 mmHg 75%
    05:00 +17°C° 0.1 mm 0 mps 652 mmHg 75%
    06:00 +17°C° 0.1 mm 0 mps 653 mmHg 74%
    07:00 +18°C° 0.1 mm 0 mps 653 mmHg 74%
    08:00 +20°C° 0 mm 0 mps 654 mmHg 67%
    09:00 +22°C° 0 mm 0 mps 655 mmHg 60%
    10:00 +24°C° 0 mm 0 mps 656 mmHg 52%
    11:00 +28°C° 0 mm 1 mps 655 mmHg 48%
    12:00 +29°C° 0 mm 1 mps 655 mmHg 44%
    13:00 +31°C° 0 mm 1 mps 655 mmHg 39%
    14:00 +29°C° 0 mm 1 mps 654 mmHg 43%
    15:00 +28°C° 0 mm 2 mps 653 mmHg 46%
    16:00 +27°C° 0 mm 2 mps 652 mmHg 50%
    17:00 +26°C° 0 mm 2 mps 653 mmHg 53%
    18:00 +25°C° 0 mm 2 mps 653 mmHg 55%
    19:00 +24°C° 0 mm 1 mps 653 mmHg 58%
    20:00 +23°C° 0 mm 1 mps 653 mmHg 59%
    21:00 +22°C° 0 mm 1 mps 654 mmHg 60%
    22:00 +20°C° 0 mm 1 mps 654 mmHg 61%
    23:00 +20°C° 0 mm 1 mps 654 mmHg 61%

    Day after tomorrow, 18 January, Friday

    Time Temperature Precipitation Wind Pressure Humidity
    00:00 +18°C° 0 mm 2 mps 653 mmHg 61%
    01:00 +18°C° 0 mm 2 mps 653 mmHg 61%
    02:00 +19°C° 0 mm 1 mps 653 mmHg 62%
    03:00 +18°C° 0 mm 1 mps 652 mmHg 63%
    04:00 +18°C° 0 mm 1 mps 652 mmHg 64%
    05:00 +19°C° 0 mm 1 mps 653 mmHg 63%
    06:00 +19°C° 0 mm 1 mps 653 mmHg 61%
    07:00 +20°C° 0 mm 1 mps 654 mmHg 59%
    08:00 +23°C° 0 mm 1 mps 655 mmHg 50%
    09:00 +27°C° 0 mm 1 mps 655 mmHg 42%
    10:00 +30°C° 0 mm 1 mps 656 mmHg 33%
    11:00 +32°C° 0 mm 1 mps 656 mmHg 30%
    12:00 +34°C° 0 mm 1 mps 656 mmHg 28%
    13:00 +35°C° 0 mm 1 mps 655 mmHg 26%
    14:00 +34°C° 0 mm 1 mps 654 mmHg 26%
    15:00 +34°C° 0 mm 1 mps 654 mmHg 26%
    16:00 +34°C° 0 mm 2 mps 653 mmHg 27%
    17:00 +31°C° 0 mm 2 mps 653 mmHg 30%
    18:00 +29°C° 0 mm 2 mps 653 mmHg 32%
    19:00 +27°C° 0 mm 2 mps 653 mmHg 35%
    20:00 +26°C° 0 mm 2 mps 653 mmHg 37%
    21:00 +25°C° 0 mm 3 mps 654 mmHg 38%
    22:00 +24°C° 0 mm 3 mps 654 mmHg 40%
    23:00 +21°C° 0 mm 2 mps 653 mmHg 44%

    19 January, Saturday

    Time Temperature Precipitation Wind Pressure Humidity
    00:00 +20°C° 0 mm 2 mps 653 mmHg 48%
    01:00 +19°C° 0 mm 2 mps 653 mmHg 52%
    02:00 +19°C° 0 mm 2 mps 652 mmHg 54%
    03:00 +18°C° 0 mm 2 mps 652 mmHg 56%
    04:00 +18°C° 0 mm 2 mps 652 mmHg 58%
    05:00 +20°C° 0 mm 1 mps 653 mmHg 57%
    06:00 +20°C° 0 mm 1 mps 653 mmHg 56%
    07:00 +19°C° 0 mm 0 mps 654 mmHg 55%
    08:00 +22°C° 0 mm 0 mps 655 mmHg 46%
    09:00 +28°C° 0 mm 1 mps 655 mmHg 37%
    10:00 +31°C° 0 mm 1 mps 656 mmHg 29%
    11:00 +33°C° 0 mm 1 mps 656 mmHg 27%
    12:00 +36°C° 0 mm 1 mps 656 mmHg 24%
    13:00 +39°C° 0 mm 1 mps 655 mmHg 22%
    14:00 +37°C° 0 mm 1 mps 655 mmHg 23%
    15:00 +35°C° 0 mm 1 mps 654 mmHg 24%
    16:00 +34°C° 0 mm 1 mps 653 mmHg 24%
    17:00 +33°C° 0 mm 1 mps 653 mmHg 27%
    18:00 +31°C° 0 mm 2 mps 653 mmHg 30%
    19:00 +29°C° 0 mm 3 mps 654 mmHg 33%
    20:00 +28°C° 0 mm 3 mps 654 mmHg 38%
    21:00 +26°C° 0 mm 3 mps 654 mmHg 43%
    22:00 +25°C° 0 mm 4 mps 654 mmHg 47%
    23:00 +24°C° 0 mm 3 mps 654 mmHg 53%

    20 January, Sunday

    Time Temperature Precipitation Wind Pressure Humidity
    00:00 +22°C° 0 mm 3 mps 653 mmHg 59%
    01:00 +20°C° 0 mm 2 mps 653 mmHg 64%
    02:00 +20°C° 0 mm 2 mps 653 mmHg 65%
    03:00 +19°C° 0 mm 2 mps 653 mmHg 66%
    04:00 +19°C° 0 mm 2 mps 653 mmHg 68%
    05:00 +19°C° 0 mm 2 mps 653 mmHg 65%
    06:00 +21°C° 0 mm 1 mps 654 mmHg 63%
    07:00 +21°C° 0 mm 1 mps 655 mmHg 61%
    08:00 +22°C° 0 mm 1 mps 655 mmHg 60%
    09:00 +22°C° 0 mm 1 mps 654 mmHg 60%
    10:00 +23°C° 0 mm 1 mps 654 mmHg 59%
    11:00 +26°C° 0 mm 1 mps 654 mmHg 49%
    12:00 +30°C° 0 mm 2 mps 655 mmHg 39%
    13:00 +34°C° 0 mm 2 mps 655 mmHg 28%
    14:00 +34°C° 0 mm 1 mps 655 mmHg 26%
    15:00 +35°C° 0 mm 1 mps 654 mmHg 25%
    16:00 +36°C° 0 mm 1 mps 654 mmHg 23%
    17:00 +33°C° 0 mm 1 mps 654 mmHg 31%
    18:00 +30°C° 0 mm 2 mps 654 mmHg 38%
    19:00 +28°C° 0 mm 2 mps 654 mmHg 46%
    20:00 +26°C° 0 mm 2 mps 654 mmHg 49%
    21:00 +25°C° 0 mm 2 mps 654 mmHg 52%
    22:00 +24°C° 0 mm 2 mps 654 mmHg 55%
    23:00 +23°C° 0 mm 2 mps 654 mmHg 57%

    21 January, Monday

    Time Temperature Precipitation Wind Pressure Humidity
    00:00 +23°C° 0 mm 2 mps 654 mmHg 59%
    01:00 +21°C° 0 mm 3 mps 654 mmHg 61%
    02:00 +20°C° 0 mm 2 mps 653 mmHg 63%
    03:00 +20°C° 0 mm 2 mps 653 mmHg 65%
    04:00 +19°C° 0 mm 2 mps 653 mmHg 66%
    05:00 +20°C° 0 mm 1 mps 654 mmHg 65%
    06:00 +21°C° 0 mm 1 mps 654 mmHg 63%
    07:00 +22°C° 0 mm 1 mps 655 mmHg 61%
    08:00 +25°C° 0 mm 1 mps 655 mmHg 51%
    09:00 +29°C° 0 mm 1 mps 656 mmHg 40%
    10:00 +32°C° 0 mm 1 mps 657 mmHg 30%
    11:00 +35°C° 0 mm 1 mps 657 mmHg 27%
    12:00 +35°C° 0 mm 0 mps 657 mmHg 24%
    13:00 +38°C° 0 mm 0 mps 657 mmHg 21%
    14:00 +36°C° 0 mm 0 mps 655 mmHg 23%
    15:00 +35°C° 0 mm 1 mps 654 mmHg 26%
    16:00 +33°C° 0 mm 1 mps 653 mmHg 29%
    17:00 +31°C° 0 mm 1 mps 653 mmHg 32%
    18:00 +29°C° 0 mm 2 mps 653 mmHg 35%
    19:00 +28°C° 0 mm 3 mps 653 mmHg 38%
    20:00 +27°C° 0 mm 3 mps 653 mmHg 43%
    21:00 +26°C° 0 mm 3 mps 654 mmHg 47%
    22:00 +25°C° 0 mm 3 mps 654 mmHg 51%
    23:00 +23°C° 0 mm 2 mps 654 mmHg 56%
    Show more